カタログに戻る

FOX-1

運用中アマチュア無線LEO
NORAD 40967·PAYLOAD·🇺🇸 United States

打ち上げ Oct 8, 2015 から Vandenberg Space Force Base

Loading…

次のパス (今後24時間)

TLE

最新Source: Space-Track

元期: Sep 13, 2026, 11:25 UTC

1 40967U 15058D   26256.47575324  .00001376  00000-0  12992-3 0  9996
2 40967  64.7758   4.5067 0138042  23.5236 337.2107 14.91385543126731

AllMySatでFOX-1をリアルタイム追跡

Download on the App Store